Welcome to the New NWS' Forecast!
Most changes are behind the scenes, but click here for differences you might notice.

Regional Weather Roundup (RWR)

Issued by National Weather Service (NWS)

                            
147 
ASUS42 KTBW 222217
RWRFL 
FLORIDA REGIONAL WEATHER ROUNDUP
NATIONAL WEATHER SERVICE TAMPA BAY RUSKIN FL
600 PM EDT SAT SEP 22 2018

NOTE: "FAIR" INDICATES FEW OR NO CLOUDS BELOW 12,000 FEET WITH NO
SIGNIFICANT WEATHER AND/OR OBSTRUCTIONS TO VISIBILITY.

FLZ001>010-012>015-112-114-115-222300-
PANHANDLE FLORIDA
  
CITY           SKY/WX    TMP DP  RH WIND       PRES   REMARKS
PENSACOLA      FAIR      86  71  60 SE9       29.96S                  
MILTON NAS     CLOUDY    77  70  79 N7        29.98R THUNDER          
CRESTVIEW      FAIR      84  70  62 CALM      29.98S                  
DUKE FIELD     MOSUNNY   88  70  55 SE7       29.96F                  
VALPARAISO     MOSUNNY   87  72  59 S5        29.96S                  
MARY ESTHER    MOSUNNY   87  67  51 S8        29.95F                  
PANAMA CITY    FAIR      84  74  71 S7        29.97R                  
TYNDALL AFB    DRIZZLE   80  74  80 E5        29.98S                  
APALACHICOLA   FAIR      87  74  64 SE8       29.97S HX  95           

STATION/POSITION SKY/WX   TEMP    WIND        PRES    WAVE   SWELL
                          AIR SEA DIR/SP/G            HT/PER HT/PER
                          (F)     (DEG/KT/KT) (MB)    (FT/S) (FT/S)
30.1N   87.6W              85     150/ 10/ 12 1014.7F   2/ 4   2/ 6
29.2N   88.2W                 87  130/  8/ 12 1014.5F   2/ 4   2/ 4
28.8N   86.0W              81 86   90/ 16/ 17   N/A     2/ 4
PANAMA CITY BEAC           82 88  150/ 13/ 14 1015.5R
TOWER C                    83     140/  4/  6 1015.4F

$$
FLZ011-016>038-118-127-128-134-139-239-222300-
NORTH FLORIDA
  
CITY           SKY/WX    TMP DP  RH WIND       PRES   REMARKS
MARIANNA       FAIR      91  68  46 SE6       29.96S HX  95           
TALLAHASSEE    FAIR      90  68  48 E10       29.97S                  
PERRY          FAIR      90  66  44 NE3       29.97S                  
LIVE OAK       PTSUNNY   88  68  51 CALM      29.97S                  
CROSS CITY     FAIR      86  72  61 E6        29.97R                  
LAKE CITY      FAIR      82  70  65 E5        29.99S                  
GAINESVILLE    CLOUDY    84  71  65 E8        30.01S                  
PALATKA        FAIR      84  73  70 SE12G18   30.00R                  
MAYPORT NAS    FAIR      84  72  67 E12       30.01S                  
JACKSONVILLE   FAIR      85  71  63 E12       30.00S                  
JAX NAS        PTSUNNY   86  70  58 E12       30.01S                  
JAX CECIL      PTSUNNY   86  68  54 E7        30.00R                  
ST AUGUSTINE   FAIR      84  71  65 E13       30.01S                  
PALM COAST     MOSUNNY   84  72  65 E9        30.00S                  

STATION/POSITION SKY/WX   TEMP    WIND        PRES    WAVE   SWELL
                          AIR SEA DIR/SP/G            HT/PER HT/PER
                          (F)     (DEG/KT/KT) (MB)    (FT/S) (FT/S)
SHELL POINT      NOT AVBL
KEATON BEACH               86     290/  7/  9 1014.9F
CEDAR KEY                  86      50/  6/  6 1014.8F
FERNANDINA                 87 85   60/  4/ 10 1017.3F
30.7N   81.3W                 85                N/A     2/10
MAYPORT                    83 85   90/  7/ 12 1016.8F
31.4N   80.9W              82 85   70/ 12/ 14 1016.8F   3/10   2/10
ST AUGUSTINE               82 83  100/ 11/ 12 1016.4F

$$
FLZ040-043>046-052-053-057-058-063-144-222300-
INTERIOR CENTRAL FLORIDA
  
CITY           SKY/WX    TMP DP  RH WIND       PRES   REMARKS
OCALA          FAIR      86  71  60 VRB6      29.98S                  
LEESBURG       FAIR      86  72  62 E9        29.99S                  
SANFORD        FAIR      85  71  63 E13       29.99R                  
ORLANDO EXEC   FAIR      86  71  60 E13       29.99R                  
ORLANDO INTL   PTSUNNY   85  69  58 E14       29.99R                  
KISSIMMEE      CLOUDY    86  70  58 E12       29.99S                  
WINTER HAVEN   FAIR      89  68  49 E15       29.99S                  
LAKELAND       MOSUNNY   88  68  51 E8        29.97S                  
BARTOW         FAIR      86  68  54 E13       29.97                   
SEBRING        TSTM      80  75  86 E3        29.97F                  
OKEECHOBEE       N/A     77  75  94 N3        29.97F                  

$$
FLZ041-047-054-059-064-141-147-222300-
EAST CENTRAL FLORIDA
  
CITY           SKY/WX    TMP DP  RH WIND       PRES   REMARKS
ORMOND BEACH   MOSUNNY   84  73  70 E9        30.00R                  
DAYTONA BEACH  PTSUNNY   83  74  74 E9        30.00R                  
DELAND         FAIR      84  72  65 E10       29.99S                  
NEW SMYRNA BEA MOSUNNY   84  72  65 E9        30.01R                  
JFK SPACE CTR  FAIR      84  71  63 E10       29.99S                  
TITUSVILLE     MOSUNNY   88  70  55 E12       30.00R                  
CAPE CANAVERAL FAIR      85  71  63 E9        29.98R                  
PATRICK AFB    FAIR      84  75  73 E8        29.99R                  
MELBOURNE      FAIR      84  75  74 E12       29.99R                  
VERO BEACH     CLOUDY    82  73  74 E8        29.99R                  
FT PIERCE      PTSUNNY   82  76  81 E13       29.97S                  

STATION/POSITION SKY/WX   TEMP    WIND        PRES    WAVE   SWELL
                          AIR SEA DIR/SP/G            HT/PER HT/PER
                          (F)     (DEG/KT/KT) (MB)    (FT/S) (FT/S)
28.5N   80.2W              83      80/ 12/ 14 1015.7R   3/10   3/10
28.9N   78.5W              83 85   80/ 12/ 16 1016.1S
TRIDENT PIER               85 86   60/  8/ 11 1017.3R
28.4N   80.5W                 86                N/A     2/ 4
27.5N   80.2W                 84                N/A     5/10   2/11

$$
FLZ050-056-061-142-242-148-248-149-249-151-251-155-255-
160-260-222300-
WEST CENTRAL FLORIDA
  
CITY           SKY/WX    TMP DP  RH WIND       PRES   REMARKS
CRYSTAL RIVER  FAIR      88  70  55 E7        29.96S                  
BROOKSVILLE    PTSUNNY   87  70  56 E12       29.97R                  
CLEARWATER AIR FAIR      88  68  51 SE7       29.95S                  
ST PETE CLEARW FAIR      89  71  55 SE12      29.94S HX  95           
TAMPA INTL     PTSUNNY   92  66  42 VRB7      29.96R                  
TAMPA EXEC     FAIR      88  70  55 E8        29.96S                  
PLANT CITY     FAIR      88  68  51 E8        29.99S                  
MACDILL AFB    FAIR      89  69  52 SE10      29.95S                  
PETER O KNIGHT CLOUDY    88  68  51 SE7       29.96S                  
ST PETERSBURG  FAIR      88  72  58 E14       29.94R                  
SARASOTA       FAIR      88  71  57 E8        29.93S                  
VENICE         TSTM      81  75  83 S16G22    29.96R                  

STATION/POSITION SKY/WX   TEMP    WIND        PRES    WAVE   SWELL
                          AIR SEA DIR/SP/G            HT/PER HT/PER
                          (F)     (DEG/KT/KT) (MB)    (FT/S) (FT/S)
CLEARWATER BEACH           89 88  120/  7/  9 1014.3S
MIDDLE TAMPA BAY           87     110/ 13/ 16 1014.3S
VENICE                     79 85  120/ 12/ 14   N/A

$$
FLZ066-069-070-075>078-162-262-165-265-222300-
SOUTHWEST FLORIDA AND KEYS
  
CITY           SKY/WX    TMP DP  RH WIND       PRES   REMARKS
PUNTA GORDA    FAIR      82  73  74 E8        29.97R THUNDER          
FT MYERS       LGT RAIN  83  75  77 NE3       29.93F                  
SOUTHWEST INTL FAIR      84  75  74 N6        29.93F                  
NAPLES         FAIR      81  76  84 SE7       29.94S                  
MARCO ISLAND   FAIR      79  76  90 MISG      29.95F                  
IMMOKALEE        N/A     77  73  88 VRB3G15   29.94F THUNDER          
MARATHON       FAIR      86  75  69 E8        29.92F HX  95           
KEY WEST NAS   PTSUNNY   83  72  69 NE8       29.92F                  
KEY WEST INTL  FAIR      85  74  69 NE8       29.92F                  

STATION/POSITION SKY/WX   TEMP    WIND        PRES    WAVE   SWELL
                          AIR SEA DIR/SP/G            HT/PER HT/PER
                          (F)     (DEG/KT/KT) (MB)    (FT/S) (FT/S)
NAPLES                     83 88  110/  4/  8 1013.8F
26.0N   85.6W              78 85   CALM  /  4 1013.5
DRY TORTUGAS               84      70/ 14/ 15 1013.4R
SAND KEY                   84                 1013.2S
SOMBRERO KEY               84      50/  9/ 14 1012.7R
LONG KEY                   84 89  110/  9/ 10 1013.4S
MOLASSES REEF              84 87  110/  6/  6 1013.9

$$
FLZ067-068-071>074-168-172>174-222300-
SOUTHEAST FLORIDA 
  
CITY           SKY/WX    TMP DP  RH WIND       PRES   REMARKS
W PALM BEACH   PTSUNNY   85  72  65 E8        29.96S                  
BOCA RATON     SUNNY     86  72  62 NE8       29.95S                  
FT LAUDER-EXEC FAIR      85  75  72 E13       29.94S                  
FT LAUDERDALE  PTSUNNY   85  77  77 E12       29.94S HX  95           
POMPANO BEACH  FAIR      86  75  69 E9        29.95S HX  95           
PEMBROKE PINES FAIR      87  75  67 E9        29.95S HX  96           
OPA LOCKA      FAIR      84  75  74 E12       29.95S                  
MIAMI          PTSUNNY   84  75  74 E10       29.94S                  
WEST KENDALL   FAIR      85  75  72 E10       29.94S                  
HOMESTEAD      MOSUNNY   84  77  78 E6        29.93S                  

STATION/POSITION SKY/WX   TEMP    WIND        PRES    WAVE   SWELL
                          AIR SEA DIR/SP/G            HT/PER HT/PER
                          (F)     (DEG/KT/KT) (MB)    (FT/S) (FT/S)
PORT EVERGLADES            85     110/  4/  8 1014.0F
VIRGINIA KEY               84 90   60/  7/ 11 1013.7S
LAKE WORTH                 84 87  100/  7/  9 1015.5R
FOWEY ROCKS                83 86   80/  9/ 10 1014.7R
SETTLEMENT POINT           84     240/  1/  1 1014.7F

$$